CZ-6A DEB

Satellite information

Favourite Embed

Satellite Type and Status

DEBRISIN ORBIT

Key statistics

Satellite CZ-6A DEB at a glance.

Uptime

1129

Days in orbit

Revolutions

≈ 14.5

Per day

Orbit

SSO

Sun Synchronous Orbit

Inclination

98.6

Latest

Satellite identification and parameters

Extended collection of information and parameters for CZ-6A DEB.

Object identification

Identified? True

Debris? True

Object name: CZ-6A DEB

International designator: 2022-151YU

Object number (NORAD): 55546

Object ID (CCSDS): 55546

Country: PEOPLES REPUBLIC OF CHINA (PRC)

Current information (Y/N): Y

RCS size: SMALL

Orbital parameters

Period: 99.512 minutes

Inclination: 98.6317 deg

SMA: 7113.415 km

Apoapsis: 829.752 km

Periapsis: 640.808 km

RAAN: 29.7619 deg

Eccentricy: 0.01328085

Argument of periapsis: 163.845 deg

Mean anomaly: 196.7039 deg

Mean motion: 14.47056676 rev/day

Mean motion (dot): 0.00002824 rev/day2

B* drag term: 0.00070699822 1/REarth

Two-line elements (TLE)

Creation date: Dec. 11, 2025, 10:54 a.m.

Reference frame: TEME

Reference center: EARTH

Epoch: Dec. 11, 2025, 2:01 a.m. UTC

TLE line 0: 0 CZ-6A DEB

TLE line 1: 1 55546U 22151YU 25345.08404107 .00002824 00000-0 70700-3 0 9992

TLE line 2: 2 55546 98.6317 29.7619 0132808 163.8450 196.7039 14.47056676161799

Live tracking on map

Real-time ground track for satellite CZ-6A DEB.

In-orbit conjunctions

A list of the most updated potential collisions computed for object CZ-6A DEB.

Target Orbit TCA Probability of collision Miss distance Type
ELECTRON KICK STAGE R/B SSO 2025-09-24 13:45:39 0.0001244137 292.0 (m) ROCKET BODY
CZ-2C R/B SSO 2025-05-11 00:28:49 0.0002305288 96.0 (m) ROCKET BODY

Associated space launch

Chinese satellite reported for atmospheric/ocean/environmental/spatial parameter research purposes, details TBD.

CZ-6A DEB was lifted into orbit during the mission ‘Long March 6A | Yunhai 3’, on board a Long March 6A space rocket.

The launch took place on Nov. 11, 2022, 10:52 p.m. from Launch Complex 9A.

For more information about the launch, click the button.

Launch to space Long March 6A | Yunhai 3
Long March 6A | Yunhai 3

Agency: N/A

Status: Launch Successful

Launch date: Nov. 11, 2022, 10:52 p.m. UTC

Rocket: Long March 6A

Launch pad: Launch Complex 9A

Location: Taiyuan Satellite Launch Center, People's Republic of China

...

Latest news about this satellite

There are no fresh news available about this satellite. Check back as we update our databases every day.


Newsletter sign-up

Weekly statistics, charts and insights to help you stay on top of the space industry.